ONEWEB-0011 (44062 NORAD) Tracking and Keplerian Element Data

This shows tracking and keplerian element data for the satellite.

Feedback or suggestion? Click here.




ElementValue
Catalog44062
NameONEWEB-0011
Epoch Orbit17264
Epoch Day269.48446639
Epoch Year2022
RAAN169.8591
Inclination87.9186
Eccentricity0.0002164
Argument of Perigee73.0147
Mean Anonmoly287.1221
Mean Motion13.15547666
Decay Rate2.08E-06
L11 44062U 19010F 22269.48446639 .00000208 00000+0 51838-3 0 9999
L22 44062 87.9186 169.8591 0002164 73.0147 287.1221 13.15547666172648

Live tracking and technical data element details for ONEWEB-0011 (NORAD 44062). ONEWEB-0011 can be tracked NOW for your location showing map with azimuth and elevation plus other details from your city location.

Track the satellite on the map from your city or location and see movement details for azimuth, elevation, latitude, longitude, range, height, and movement on the map or in text.







IsCatalogInMostPopularTable: catalog: 44062, numindb: 1083
Update: records affected: 1



GetName: 44062 ONEWEB-0011

Hit Count: updated at: Fri, 30 Sep 2022 03:00:26 GMT